OpenBCM V1.13 (Linux)

Packet Radio Mailbox

DB0FHN

[JN59NK Nuernberg]

 Login: GUEST





  
LU9DCE > KEP      23.04.19 20:34l 248 Lines 12185 Bytes #999 (0) @ WW
BID : 22628_LU9DCE
Read: DF7EAV DK3UZ GUEST
Subj: TLE 23 04
Path: DB0FHN<DB0BLO<DB0ERF<OK0NAG<IK6ZDE<VE2PKT<N3HYM<LU9DCE
Sent: 190423/1800Z 22628@LU9DCE.TOR.BA.ARG.SOAM LinBPQ6.0.18

            __    _  _  ___  ____   ___  ____    ____  ____  ____
           (  )  / )( \/ _ \(    \ / __)(  __)  (  _ \(  _ \/ ___)
           / (_/\) \/ (\__  )) D (( (__  ) _)    ) _ ( ) _ (\___ \
           \____/\____/(___/(____/ \___)(____)  (____/(____/(____/
               ESTACION DE PACKET RADIO - BUENOS AIRES (GF05OM)
                   BOLETINES INFORMATIVOS PROGRAMADOS (BIP)
              28.125 USB @ 300 BAUD --- HELLOCODELINUX@GMAIL.COM

+----------------------------------------------------------------------------+
OSCAR 7
1  7530U 74089B   19113.53583559 -.00000038  00000-0  39878-4 0  9992
2  7530 101.7387  81.7853 0012547  95.0062  15.5736 12.53637682 33485
OSCAR 11 (UoSAT 2)
1 14781U 84021B   19112.95914368 +.00000033 +00000-0 +10184-4 0  9999
2 14781 097.6162 140.3447 0009504 138.6595 221.5340 14.83078179869358
OSCAR 19 (LUSAT)
1 20442U 90005G   19113.38837391  .00000013  00000-0  20951-4 0  9998
2 20442  98.6442  55.4969 0011038 320.2544  39.7830 14.32922831528312
EYESAT A
1 22825U 93061C   19113.52650899 -.00000012  00000-0  13344-4 0  9990
2 22825  98.9008 100.8909 0008778 155.7903 204.3692 14.30056281333928
ITAMSAT
1 22826U 93061D   19113.54126035 -.00000010  00000-0  14076-4 0  9994
2 22826  98.8948 100.9044 0009513 145.6471 214.5327 14.30389591334122
RADIO ROSTO
1 23439U 94085A   19112.93157654 -.00000021 +00000-0 +61605-3 0  9996
2 23439 064.8169 207.9127 0147360 124.2182 237.2804 11.27567866001495
JAS 2
1 24278U 96046B   19113.05720749 -.00000021  00000-0  13763-4 0  9995
2 24278  98.5290 274.1725 0350774  27.0607 334.8350 13.53090646120145
TECHSAT 1B
1 25397U 98043D   19113.46499466 -.00000010  00000-0  14864-4 0  9992
2 25397  98.6847  54.3039 0001344 148.8656 211.2602 14.23663831 79876
ISS (ZARYA)
1 25544U 98067A   19113.52041949  .00000927  00000-0  22287-4 0  9992
2 25544  51.6408 272.9322 0001153 202.7505 265.4900 15.52580921166764
PCSAT
1 26931U 01043C   19113.21958532 -.00000039  00000-0  16665-4 0  9990
2 26931  67.0497 149.4061 0006010 278.5702  81.4718 14.30539149916890
SAUDISAT 1C
1 27607U 02058C   19112.75115281 -.00000003 +00000-0 +20477-4 0  9999
2 27607 064.5550 223.6821 0082378 267.3618 091.8053 14.75537741878502
CUTE-1
1 27844U 03031E   19113.01758951  .00000034  00000-0  34911-4 0  9992
2 27844  98.6859 122.0741 0009613 188.1830 171.9193 14.22171496820230
CUBESAT XI 4
1 27848U 03031J   19113.48622802  .00000020  00000-0  28795-4 0  9990
2 27848  98.6938 123.0233 0009308 198.3106 161.7738 14.21767535820156
MOZHAYETS 4
1 27939U 03042A   19113.42753372  .00000112  00000-0  28602-4 0  9993
2 27939  98.0304 250.3712 0011688 242.0688 117.9350 14.66771451832292
CUBESAT XI 5
1 28895U 05043F   19113.17743029  .00000126  00000-0  33003-4 0  9994
2 28895  97.9500 257.8743 0017248 165.6690 194.5005 14.63651412719212
CUTE-1.7+APD II
1 32785U 08021C   19113.21025313  .00000196  00000-0  26771-4 0  9991
2 32785  97.5499 115.5905 0014723  90.3779 269.9125 14.88282976595286
DELFI C3
1 32789U 08021G   19113.37398983  .00000911  00000-0  65196-4 0  9997
2 32789  97.4700 164.7255 0011034 324.2857  35.7632 15.06816285598480
SEEDS
1 32791U 08021J   19112.98792009  .00000268  00000-0  32555-4 0  9991
2 32791  97.5296 121.2893 0014900  69.6812 290.6007 14.90781012595662
YUBELEINY
1 32953U 08025A   19113.46671189  .00000020  00000-0  75656-4 0  9999
2 32953  82.5062 179.7290 0017957 249.4939 110.4215 12.43088809495321
PRISM (HITOMI)
1 33493U 09002B   19112.76606763  .00000465  00000-0  46362-4 0  9998
2 33493  98.1220  31.5631 0015545  16.2630 343.9086 14.96586758556630
KKS-1 (KISEKI)
1 33499U 09002H   19112.91170286 +.00000088 +00000-0 +21004-4 0  9994
2 33499 098.3539 309.7960 0009887 034.2746 325.9099 14.75425601550427
SWISSCUBE
1 35932U 09051B   19112.91239536 +.00000108 +00000-0 +35530-4 0  9998
2 35932 098.5818 277.2416 0007172 349.0265 011.0775 14.56265960508477
BEESAT
1 35933U 09051C   19112.91889133 +.00000091 +00000-0 +31465-4 0  9997
2 35933 098.5849 278.9788 0005712 005.5470 354.5789 14.56357534508549
ITUPSAT 1
1 35935U 09051E   19113.15011373  .00000059  00000-0  24859-4 0  9992
2 35935  98.5961 279.4584 0007915 357.9210   2.1952 14.55519950508414
XIWANG-1 (HOPE-1)
1 36122U 09072B   19112.73223519 -.00000009 +00000-0 +85603-4 0  9994
2 36122 100.0732 117.7893 0007883 110.8245 249.3714 13.16349748449386
TISAT 1
1 36799U 10035E   19113.11158705  .00000352  00000-0  41645-4 0  9990
2 36799  98.1476 263.4148 0010909 271.2858  88.7109 14.91059487476335
JUGNU
1 37839U 11058B   19111.97086947 +.00000319 +00000-0 +28352-4 0  9995
2 37839 019.9618 324.8036 0018946 050.9143 091.9649 14.12647981388978
SRMSAT
1 37841U 11058D   19112.07559017  .00000303  00000-0  21511-4 0  9996
2 37841  19.9732  19.7480 0011711 283.5499 203.9721 14.10629356388545
M-CUBED/EXP-1 PRIME
1 37855U 11061F   19113.56831448  .00001176  00000-0  66986-4 0  9995
2 37855 101.7226 340.3411 0173832 243.1367 115.1983 15.05285831408339
HORYU 2
1 38340U 12025D   19112.61951705  .00000132  00000-0  27400-4 0  9999
2 38340  98.3354 149.4787 0010344 310.1816  49.8486 14.75695120372746
STRAND 1
1 39090U 13009E   19112.82290979 +.00000016 +00000-0 +20752-4 0  9991
2 39090 098.4943 319.7176 0010360 096.9737 263.2627 14.35079115322219
SOMP
1 39134U 13015E   19112.64861581 +.00000968 +00000-0 +53869-4 0  9991
2 39134 064.8637 205.2249 0025461 313.2511 046.6491 15.20008978331540
BEESAT 3
1 39135U 13015F   19113.52446694  .00000819  00000-0  50620-4 0  9991
2 39135  64.8669 219.9090 0012898 319.8133  40.2038 15.17341159331728
BEESAT 2
1 39136U 13015G   19113.54064757  .00000936  00000-0  57319-4 0  9992
2 39136  64.8691 223.5049 0013897 311.9525  48.0415 15.16784238331652
CUBEBUG 1
1 39153U 13018D   19113.26355797  .00000166  00000-0  28641-4 0  9991
2 39153  97.9746 211.7187 0017430  26.1569 334.0520 14.80543557323463
ZACUBE
1 39417U 13066B   19112.95546429 +.00000160 +00000-0 +26628-4 0  9993
2 39417 097.5660 129.6368 0057982 218.8197 140.8845 14.81087322292640
TRITON 1
1 39427U 13066M   19112.94306343 +.00000218 +00000-0 +42837-4 0  9996
2 39427 097.6719 093.8426 0113606 347.9871 011.8628 14.67813991289828
GOMX 1
1 39430U 13066Q   19113.46424792  .00000187  00000-0  42487-4 0  9993
2 39430  97.7405  73.7413 0152933  71.5836 290.1909 14.59224644288404
HUMSAT D
1 39433U 13066T   19112.88251850 +.00000575 +00000-0 +61307-4 0  9997
2 39433 097.5600 162.6910 0032169 128.6951 231.7153 14.92139879293424
CUBEBUG 2
1 39440U 13066AA  19113.00272046  .00000175  00000-0  31524-4 0  9994
2 39440  97.6023 114.7888 0078701 269.1464  90.0729 14.75827053291619
FUNCUBE 1
1 39444U 13066AE  19113.05477320  .00000206  00000-0  31745-4 0  9995
2 39444  97.5644 131.6195 0057277 212.4616 147.3071 14.81899954291549
UWE-3
1 39446U 13066AG  19113.51008868  .00000168  00000-0  29079-4 0  9999
2 39446  97.5829 122.2183 0068629 242.8208 116.5997 14.78361236290969
SPROUT
1 39770U 14029E   19113.52246609  .00000634  00000-0  76384-4 0  9996
2 39770  97.8788 217.2031 0007754 271.0488  88.9845 14.87266647266483
UNISAT 6
1 40012U 14033C   19112.85540900  .00000147  00000-0  29418-4 0  9993
2 40012  97.7658 341.8883 0056922 281.6502  77.8322 14.73953287260314
DUCHIFAT 1
1 40021U 14033M   19112.75363865  .00000334  00000-0  39987-4 0  9995
2 40021  97.9232  37.1642 0011592 234.8542 125.1591 14.90581280263069
QB50P1
1 40025U 14033R   19113.31622355  .00000280  00000-0  35866-4 0  9996
2 40025  97.9065  33.0908 0011080 242.5666 117.4425 14.88908422262935
CHUBUSAT 1
1 40300U 14070C   19113.24249909  .00000606  00000-0  29471-4 0  9992
2 40300  97.3305 188.8466 0018461 253.6126 140.6785 15.22004487247436
NUDT-PHONESAT
1 40900U 15049B   19113.52655366  .00001919  00000-0  85557-4 0  9999
2 40900  97.4388 123.4195 0013863  30.2174  88.4214 15.22551332199114
ZDPS 2A
1 40901U 15049C   19113.50803541  .00000661  00000-0  36163-4 0  9990
2 40901  97.4596 120.1475 0014908  44.1960  77.6358 15.17622954198716
ZDPS 2B
1 40902U 15049D   19113.52531094  .00001126  00000-0  59587-4 0  9996
2 40902  97.4540 117.7415 0014993  41.6272  77.3222 15.17403800198695
XW-2A
1 40903U 15049E   19113.57803214  .00001657  00000-0  41317-4 0  9999
2 40903  97.3439 156.0119 0013463 357.7044 129.1031 15.41630629201606
KAITUO 1A
1 40904U 15049F   19113.41466759  .00000641  00000-0  37433-4 0  9998
2 40904  97.4662 116.3912 0016221  47.4915  90.6070 15.15310118198475
OBJECT G
1 40905U 15049G   19113.58469249  .00000387  00000-0  24696-4 0  9998
2 40905  97.4693 114.1820 0016937  42.1323  80.9381 15.14241727198388
XW-2C
1 40906U 15049H   19113.55467478  .00000666  00000-0  38477-4 0  9990
2 40906  97.4667 116.5677 0016390  38.5930  76.6692 15.15597965198490
XW-2D
1 40907U 15049J   19113.40607301  .00000894  00000-0  50210-4 0  9998
2 40907  97.4651 116.1012 0015583  37.6146  72.0765 15.15781218198481
LILACSAT 2
1 40908U 15049K   19113.41440883  .00000553  00000-0  34189-4 0  9999
2 40908  97.4776 115.0469 0017461  41.4291  88.9228 15.13756673198299
XW-2F
1 40910U 15049M   19113.55363361  .00001076  00000-0  57432-4 0  9999
2 40910  97.4621 118.1204 0015891  31.2422  85.7145 15.17173359198505
XW-2B
1 40911U 15049N   19113.36972019  .00000449  00000-0  27010-4 0  9997
2 40911  97.4674 116.6981 0015409  39.0905  68.1595 15.15710030198376
KAITUO 1B
1 40912U 15049P   19113.40451175  .00001227  00000-0  60937-4 0  9998
2 40912  97.4504 121.4916 0015770  16.0571  91.5271 15.19469654198767
TIANWANG 1C (TW-1C)
1 40926U 15051B   19113.41956559  .00009978  00000-0  15284-3 0  9998
2 40926  97.1421 159.6928 0007659 206.7397 282.6730 15.54506801201419
